contact:dominique.lefevre@mio.osupytheas.fr, maurice.libes@osupytheas.fr, didier.mallarino@osupytheas.fr
Project:EMSO http://www.emso-fr.org/EMSO-France
Depth: 2436.0 m
Title:EMSO Ligure Ouest : Data MII capteur MICROCAT
DateTime_Computer,Latitude,Longitude,Temperature,Conductivity,Pressure,DateTime_Instrument
DateTime_Computer,Latitude,Longitude,degC,S m-1,dbar,DateTime_Instrument
2019-07-24T00:01:37Z,42.805,6.029,13.2956,4.59954,2469.947,2019-7-24T02:01:56Z
2019-07-24T00:04:40Z,42.805,6.029,13.2956,4.59953,2469.923,2019-7-24T02:04:59Z
2019-07-24T00:07:43Z,42.805,6.029,13.2952,4.59954,2469.947,2019-7-24T02:08:02Z
2019-07-24T00:10:47Z,42.805,6.029,13.2957,4.59953,2469.97,2019-7-24T02:11:06Z
2019-07-24T00:13:50Z,42.805,6.029,13.2953,4.59954,2469.96,2019-7-24T02:14:09Z
2019-07-24T00:16:53Z,42.805,6.029,13.2952,4.59954,2469.97,2019-7-24T02:17:12Z
2019-07-24T00:19:56Z,42.805,6.029,13.2953,4.59954,2470.017,2019-7-24T02:20:15Z
2019-07-24T00:23:00Z,42.805,6.029,13.2953,4.59954,2469.947,2019-7-24T02:23:19Z
2019-07-24T00:26:03Z,42.805,6.029,13.2952,4.59954,2469.923,2019-7-24T02:26:22Z
2019-07-24T00:29:06Z,42.805,6.029,13.2951,4.59953,2469.947,2019-7-24T02:29:25Z
2019-07-24T00:32:10Z,42.805,6.029,13.2958,4.59953,2469.947,2019-7-24T02:32:29Z
2019-07-24T00:35:13Z,42.805,6.029,13.2951,4.59953,2469.984,2019-7-24T02:35:32Z
2019-07-24T00:38:16Z,42.805,6.029,13.2957,4.59954,2469.96,2019-7-24T02:38:35Z
2019-07-24T00:41:19Z,42.805,6.029,13.2955,4.59954,2469.96,2019-7-24T02:41:38Z
2019-07-24T00:44:23Z,42.805,6.029,13.2958,4.59954,2469.97,2019-7-24T02:44:42Z
2019-07-24T00:47:26Z,42.805,6.029,13.2953,4.59953,2469.96,2019-7-24T02:47:45Z
2019-07-24T00:50:29Z,42.805,6.029,13.2950,4.59953,2469.96,2019-7-24T02:50:48Z
2019-07-24T00:53:32Z,42.805,6.029,13.2954,4.59953,2469.96,2019-7-24T02:53:52Z
2019-07-24T00:56:36Z,42.805,6.029,13.2950,4.59955,2469.947,2019-7-24T02:56:55Z
2019-07-24T00:59:39Z,42.805,6.029,13.2956,4.59955,2469.947,2019-7-24T02:59:58Z
2019-07-24T01:02:42Z,42.805,6.029,13.2958,4.59953,2469.97,2019-7-24T03:03:01Z
2019-07-24T01:05:45Z,42.805,6.029,13.2953,4.59953,2469.96,2019-7-24T03:06:05Z
2019-07-24T01:08:49Z,42.805,6.029,13.2955,4.59953,2469.984,2019-7-24T03:09:08Z
2019-07-24T01:11:52Z,42.805,6.029,13.2957,4.59954,2469.947,2019-7-24T03:12:11Z
2019-07-24T01:14:55Z,42.805,6.029,13.2955,4.59954,2469.947,2019-7-24T03:15:14Z
2019-07-24T01:17:59Z,42.805,6.029,13.2955,4.59954,2469.97,2019-7-24T03:18:18Z
2019-07-24T01:21:02Z,42.805,6.029,13.2952,4.59953,2469.923,2019-7-24T03:21:21Z
2019-07-24T01:24:05Z,42.805,6.029,13.2956,4.59954,2469.947,2019-7-24T03:24:24Z
2019-07-24T01:27:08Z,42.805,6.029,13.2953,4.59953,2469.947,2019-7-24T03:27:27Z
2019-07-24T01:30:12Z,42.805,6.029,13.2953,4.59953,2469.96,2019-7-24T03:30:31Z
2019-07-24T01:33:15Z,42.805,6.029,13.2951,4.59954,2469.947,2019-7-24T03:33:34Z
2019-07-24T01:36:18Z,42.805,6.029,13.2957,4.59954,2469.923,2019-7-24T03:36:37Z
2019-07-24T01:39:22Z,42.805,6.029,13.2960,4.59952,2469.947,2019-7-24T03:39:41Z
2019-07-24T01:42:25Z,42.805,6.029,13.2955,4.59954,2469.923,2019-7-24T03:42:44Z
2019-07-24T01:45:28Z,42.805,6.029,13.2957,4.59954,2469.923,2019-7-24T03:45:47Z
2019-07-24T01:48:31Z,42.805,6.029,13.2955,4.59953,2469.9,2019-7-24T03:48:50Z
2019-07-24T01:51:35Z,42.805,6.029,13.2956,4.59953,2469.947,2019-7-24T03:51:54Z
2019-07-24T01:54:38Z,42.805,6.029,13.2955,4.59954,2469.937,2019-7-24T03:54:57Z
2019-07-24T01:57:41Z,42.805,6.029,13.2955,4.59952,2469.96,2019-7-24T03:58:00Z
2019-07-24T02:00:44Z,42.805,6.029,13.2957,4.59954,2469.923,2019-7-24T04:01:03Z
2019-07-24T02:03:48Z,42.805,6.029,13.2956,4.59953,2469.937,2019-7-24T04:04:07Z
2019-07-24T02:06:51Z,42.805,6.029,13.2952,4.59952,2469.937,2019-7-24T04:07:10Z
2019-07-24T02:09:54Z,42.805,6.029,13.2952,4.59955,2469.96,2019-7-24T04:10:13Z
2019-07-24T02:12:58Z,42.805,6.029,13.2952,4.59954,2469.937,2019-7-24T04:13:17Z
2019-07-24T02:16:01Z,42.805,6.029,13.2956,4.59952,2469.923,2019-7-24T04:16:20Z
2019-07-24T02:19:04Z,42.805,6.029,13.2957,4.59954,2469.923,2019-7-24T04:19:23Z
2019-07-24T02:22:07Z,42.805,6.029,13.2954,4.59954,2469.923,2019-7-24T04:22:26Z
2019-07-24T02:25:11Z,42.805,6.029,13.2952,4.59954,2469.923,2019-7-24T04:25:30Z
2019-07-24T02:28:14Z,42.805,6.029,13.2953,4.59954,2469.914,2019-7-24T04:28:33Z
2019-07-24T02:31:17Z,42.805,6.029,13.2956,4.59953,2469.923,2019-7-24T04:31:36Z
2019-07-24T02:34:21Z,42.805,6.029,13.2953,4.59953,2469.9,2019-7-24T04:34:40Z
2019-07-24T02:37:24Z,42.805,6.029,13.2953,4.59956,2469.937,2019-7-24T04:37:43Z
2019-07-24T02:40:27Z,42.805,6.029,13.2956,4.59953,2469.876,2019-7-24T04:40:46Z
2019-07-24T02:43:30Z,42.805,6.029,13.2953,4.59953,2469.9,2019-7-24T04:43:49Z
2019-07-24T02:46:34Z,42.805,6.029,13.2952,4.59951,2469.914,2019-7-24T04:46:53Z
2019-07-24T02:49:37Z,42.805,6.029,13.2952,4.59954,2469.9,2019-7-24T04:49:56Z
2019-07-24T02:52:40Z,42.805,6.029,13.2957,4.59954,2469.937,2019-7-24T04:52:59Z
2019-07-24T02:55:43Z,42.805,6.029,13.2959,4.59954,2469.937,2019-7-24T04:56:02Z
2019-07-24T02:58:47Z,42.805,6.029,13.2956,4.59952,2469.876,2019-7-24T04:59:06Z
2019-07-24T03:01:50Z,42.805,6.029,13.2956,4.59952,2469.876,2019-7-24T05:02:09Z
2019-07-24T03:04:53Z,42.805,6.029,13.2955,4.59954,2469.876,2019-7-24T05:05:12Z
2019-07-24T03:07:56Z,42.805,6.029,13.2955,4.59954,2469.914,2019-7-24T05:08:15Z
2019-07-24T03:11:00Z,42.805,6.029,13.2953,4.59952,2469.914,2019-7-24T05:11:19Z
2019-07-24T03:14:03Z,42.805,6.029,13.2957,4.59954,2469.914,2019-7-24T05:14:22Z
2019-07-24T03:17:06Z,42.805,6.029,13.2953,4.59952,2469.923,2019-7-24T05:17:25Z
2019-07-24T03:20:10Z,42.805,6.029,13.2954,4.59952,2469.9,2019-7-24T05:20:29Z
2019-07-24T03:23:13Z,42.805,6.029,13.2956,4.59956,2469.9,2019-7-24T05:23:32Z
2019-07-24T03:26:16Z,42.805,6.029,13.2953,4.59953,2469.886,2019-7-24T05:26:35Z
2019-07-24T03:29:20Z,42.805,6.029,13.2949,4.59955,2469.876,2019-7-24T05:29:39Z
2019-07-24T03:32:23Z,42.805,6.029,13.2952,4.59954,2469.9,2019-7-24T05:32:42Z
2019-07-24T03:35:26Z,42.805,6.029,13.2952,4.59954,2469.89,2019-7-24T05:35:45Z
2019-07-24T03:38:29Z,42.805,6.029,13.2954,4.59954,2469.839,2019-7-24T05:38:48Z
2019-07-24T03:41:33Z,42.805,6.029,13.2952,4.59953,2469.914,2019-7-24T05:41:52Z
2019-07-24T03:44:36Z,42.805,6.029,13.2953,4.59952,2469.83,2019-7-24T05:44:55Z
2019-07-24T03:47:39Z,42.805,6.029,13.2954,4.59952,2469.9,2019-7-24T05:47:58Z
2019-07-24T03:50:42Z,42.805,6.029,13.2957,4.59952,2469.867,2019-7-24T05:51:02Z
2019-07-24T03:53:46Z,42.805,6.029,13.2957,4.59953,2469.876,2019-7-24T05:54:05Z
2019-07-24T03:56:49Z,42.805,6.029,13.2953,4.59953,2469.853,2019-7-24T05:57:08Z
2019-07-24T03:59:52Z,42.805,6.029,13.2954,4.59952,2469.89,2019-7-24T06:00:11Z
2019-07-24T04:02:55Z,42.805,6.029,13.2954,4.59953,2469.89,2019-7-24T06:03:14Z
2019-07-24T04:05:59Z,42.805,6.029,13.2955,4.59952,2469.876,2019-7-24T06:06:18Z
2019-07-24T04:09:02Z,42.805,6.029,13.2954,4.59954,2469.89,2019-7-24T06:09:21Z
2019-07-24T04:12:05Z,42.805,6.029,13.2953,4.59952,2469.914,2019-7-24T06:12:24Z
2019-07-24T04:15:09Z,42.805,6.029,13.2952,4.59954,2469.83,2019-7-24T06:15:28Z
2019-07-24T04:18:12Z,42.805,6.029,13.2957,4.59953,2469.937,2019-7-24T06:18:31Z
2019-07-24T04:21:15Z,42.805,6.029,13.2954,4.59951,2469.867,2019-7-24T06:21:34Z
2019-07-24T04:24:18Z,42.805,6.029,13.2954,4.59954,2469.89,2019-7-24T06:24:37Z
2019-07-24T04:27:22Z,42.805,6.029,13.2952,4.59952,2469.853,2019-7-24T06:27:41Z
2019-07-24T04:30:25Z,42.805,6.029,13.2956,4.59953,2469.876,2019-7-24T06:30:44Z
2019-07-24T04:33:28Z,42.805,6.029,13.2954,4.59953,2469.876,2019-7-24T06:33:47Z
2019-07-24T04:36:32Z,42.805,6.029,13.2955,4.59955,2469.839,2019-7-24T06:36:51Z
2019-07-24T04:39:35Z,42.805,6.029,13.2953,4.59954,2469.89,2019-7-24T06:39:54Z
2019-07-24T04:42:38Z,42.805,6.029,13.2953,4.59951,2469.89,2019-7-24T06:42:57Z
2019-07-24T04:45:41Z,42.805,6.029,13.2955,4.59951,2469.867,2019-7-24T06:46:00Z
2019-07-24T04:48:45Z,42.805,6.029,13.2957,4.59953,2469.89,2019-7-24T06:49:04Z
2019-07-24T04:51:48Z,42.805,6.029,13.2957,4.59954,2469.853,2019-7-24T06:52:07Z
2019-07-24T04:54:52Z,42.805,6.029,13.2952,4.59953,2469.876,2019-7-24T06:55:11Z
2019-07-24T04:57:55Z,42.805,6.029,13.2953,4.59952,2469.853,2019-7-24T06:58:14Z
2019-07-24T05:00:58Z,42.805,6.029,13.2953,4.59953,2469.89,2019-7-24T07:01:17Z
2019-07-24T05:04:01Z,42.805,6.029,13.2955,4.59952,2469.867,2019-7-24T07:04:20Z
2019-07-24T05:07:05Z,42.805,6.029,13.2956,4.59954,2469.844,2019-7-24T07:07:24Z
2019-07-24T05:10:08Z,42.805,6.029,13.2953,4.59953,2469.867,2019-7-24T07:10:27Z
2019-07-24T05:13:11Z,42.805,6.029,13.2957,4.59954,2469.853,2019-7-24T07:13:30Z
2019-07-24T05:16:14Z,42.805,6.029,13.2954,4.59954,2469.83,2019-7-24T07:16:33Z
2019-07-24T05:19:18Z,42.805,6.029,13.2956,4.59953,2469.853,2019-7-24T07:19:37Z
2019-07-24T05:22:21Z,42.805,6.029,13.2954,4.59954,2469.867,2019-7-24T07:22:40Z
2019-07-24T05:25:24Z,42.805,6.029,13.2958,4.59953,2469.83,2019-7-24T07:25:43Z
2019-07-24T05:28:28Z,42.805,6.029,13.2957,4.59951,2469.876,2019-7-24T07:28:47Z
2019-07-24T05:31:31Z,42.805,6.029,13.2956,4.59954,2469.853,2019-7-24T07:31:50Z
2019-07-24T05:34:34Z,42.805,6.029,13.2952,4.59954,2469.83,2019-7-24T07:34:53Z
2019-07-24T05:37:37Z,42.805,6.029,13.2953,4.59953,2469.844,2019-7-24T07:37:56Z
2019-07-24T05:40:41Z,42.805,6.029,13.2957,4.59953,2469.83,2019-7-24T07:41:00Z
2019-07-24T05:43:44Z,42.805,6.029,13.2954,4.59954,2469.83,2019-7-24T07:44:03Z
2019-07-24T05:46:47Z,42.805,6.029,13.2953,4.59951,2469.821,2019-7-24T07:47:06Z
2019-07-24T05:49:51Z,42.805,6.029,13.2956,4.59951,2469.83,2019-7-24T07:50:10Z
2019-07-24T05:52:54Z,42.805,6.029,13.2953,4.59953,2469.816,2019-7-24T07:53:13Z
2019-07-24T05:55:57Z,42.805,6.029,13.2955,4.59952,2469.83,2019-7-24T07:56:16Z
2019-07-24T05:59:00Z,42.805,6.029,13.2955,4.59953,2469.876,2019-7-24T07:59:19Z
2019-07-24T06:02:04Z,42.805,6.029,13.2957,4.59952,2469.844,2019-7-24T08:02:23Z
2019-07-24T06:05:07Z,42.805,6.029,13.2952,4.59952,2469.83,2019-7-24T08:05:26Z
2019-07-24T06:08:10Z,42.805,6.029,13.2955,4.59953,2469.844,2019-7-24T08:08:29Z
2019-07-24T06:11:14Z,42.805,6.029,13.2951,4.59952,2469.853,2019-7-24T08:11:33Z
2019-07-24T06:14:17Z,42.805,6.029,13.2957,4.59953,2469.853,2019-7-24T08:14:36Z
2019-07-24T06:17:20Z,42.805,6.029,13.2955,4.59952,2469.844,2019-7-24T08:17:39Z
2019-07-24T06:20:23Z,42.805,6.029,13.2956,4.59951,2469.806,2019-7-24T08:20:42Z
2019-07-24T06:23:27Z,42.805,6.029,13.2954,4.59952,2469.83,2019-7-24T08:23:46Z
2019-07-24T06:26:30Z,42.805,6.029,13.2952,4.59951,2469.806,2019-7-24T08:26:49Z
2019-07-24T06:29:33Z,42.805,6.029,13.2953,4.59951,2469.83,2019-7-24T08:29:52Z
2019-07-24T06:32:36Z,42.805,6.029,13.2952,4.59953,2469.783,2019-7-24T08:32:55Z
2019-07-24T06:35:40Z,42.805,6.029,13.2952,4.59951,2469.83,2019-7-24T08:35:59Z
2019-07-24T06:38:43Z,42.805,6.029,13.2957,4.59954,2469.821,2019-7-24T08:39:02Z
2019-07-24T06:41:46Z,42.805,6.029,13.2955,4.59951,2469.821,2019-7-24T08:42:05Z
2019-07-24T06:44:49Z,42.805,6.029,13.2955,4.59954,2469.83,2019-7-24T08:45:08Z
2019-07-24T06:47:52Z,42.805,6.029,13.2956,4.59954,2469.867,2019-7-24T08:48:11Z
2019-07-24T06:50:56Z,42.805,6.029,13.2956,4.59952,2469.806,2019-7-24T08:51:15Z
2019-07-24T06:53:59Z,42.805,6.029,13.2953,4.59954,2469.867,2019-7-24T08:54:18Z
2019-07-24T06:57:02Z,42.805,6.029,13.2955,4.59954,2469.806,2019-7-24T08:57:21Z
2019-07-24T07:00:06Z,42.805,6.029,13.2954,4.59952,2469.844,2019-7-24T09:00:25Z
2019-07-24T07:03:09Z,42.805,6.029,13.2957,4.59953,2469.853,2019-7-24T09:03:28Z
2019-07-24T07:06:12Z,42.805,6.029,13.2956,4.59951,2469.806,2019-7-24T09:06:31Z
2019-07-24T07:09:15Z,42.805,6.029,13.2953,4.59955,2469.83,2019-7-24T09:09:34Z
2019-07-24T07:12:18Z,42.805,6.029,13.2948,4.59952,2469.83,2019-7-24T09:12:37Z
2019-07-24T07:15:21Z,42.805,6.029,13.2950,4.59952,2469.83,2019-7-24T09:15:40Z
2019-07-24T07:18:25Z,42.805,6.029,13.2957,4.59954,2469.806,2019-7-24T09:18:44Z
2019-07-24T07:21:28Z,42.805,6.029,13.2953,4.59952,2469.83,2019-7-24T09:21:47Z
2019-07-24T07:24:31Z,42.805,6.029,13.2956,4.59951,2469.844,2019-7-24T09:24:50Z
2019-07-24T07:27:34Z,42.805,6.029,13.2957,4.59952,2469.783,2019-7-24T09:27:53Z
2019-07-24T07:30:37Z,42.805,6.029,13.2955,4.59952,2469.83,2019-7-24T09:30:57Z
2019-07-24T07:33:41Z,42.805,6.029,13.2953,4.59953,2469.83,2019-7-24T09:34:00Z
2019-07-24T07:36:44Z,42.805,6.029,13.2958,4.59952,2469.83,2019-7-24T09:37:03Z
2019-07-24T07:39:47Z,42.805,6.029,13.2954,4.59953,2469.806,2019-7-24T09:40:06Z
2019-07-24T07:42:50Z,42.805,6.029,13.2952,4.59952,2469.806,2019-7-24T09:43:09Z
2019-07-24T07:45:53Z,42.805,6.029,13.2952,4.59952,2469.83,2019-7-24T09:46:12Z
2019-07-24T07:48:57Z,42.805,6.029,13.2953,4.59951,2469.844,2019-7-24T09:49:16Z
2019-07-24T07:52:00Z,42.805,6.029,13.2957,4.59954,2469.83,2019-7-24T09:52:19Z
2019-07-24T07:55:03Z,42.805,6.029,13.2955,4.59953,2469.876,2019-7-24T09:55:22Z
2019-07-24T07:58:06Z,42.805,6.029,13.2957,4.59954,2469.853,2019-7-24T09:58:25Z
2019-07-24T08:01:09Z,42.805,6.029,13.2949,4.59951,2469.89,2019-7-24T10:01:28Z
2019-07-24T08:04:12Z,42.805,6.029,13.2955,4.59953,2469.83,2019-7-24T10:04:32Z
2019-07-24T08:07:16Z,42.805,6.029,13.2956,4.59951,2469.83,2019-7-24T10:07:35Z
2019-07-24T08:10:19Z,42.805,6.029,13.2954,4.59952,2469.867,2019-7-24T10:10:38Z
2019-07-24T08:13:22Z,42.805,6.029,13.2952,4.59954,2469.853,2019-7-24T10:13:41Z
2019-07-24T08:16:25Z,42.805,6.029,13.2957,4.59951,2469.83,2019-7-24T10:16:44Z
2019-07-24T08:19:28Z,42.805,6.029,13.2953,4.59953,2469.867,2019-7-24T10:19:47Z
2019-07-24T08:22:32Z,42.805,6.029,13.2953,4.59951,2469.83,2019-7-24T10:22:51Z
2019-07-24T08:25:35Z,42.805,6.029,13.2957,4.59952,2469.853,2019-7-24T10:25:54Z
2019-07-24T08:28:38Z,42.805,6.029,13.2956,4.59953,2469.839,2019-7-24T10:28:57Z
2019-07-24T08:31:41Z,42.805,6.029,13.2954,4.59951,2469.876,2019-7-24T10:32:00Z
2019-07-24T08:34:44Z,42.805,6.029,13.2954,4.59954,2469.867,2019-7-24T10:35:03Z
2019-07-24T08:37:48Z,42.805,6.029,13.2951,4.59953,2469.853,2019-7-24T10:38:07Z
2019-07-24T08:40:51Z,42.805,6.029,13.2956,4.59956,2469.89,2019-7-24T10:41:10Z
2019-07-24T08:43:54Z,42.805,6.029,13.2956,4.59954,2469.806,2019-7-24T10:44:13Z
2019-07-24T08:46:57Z,42.805,6.029,13.2958,4.59952,2469.83,2019-7-24T10:47:16Z
2019-07-24T08:50:00Z,42.805,6.029,13.2949,4.59952,2469.853,2019-7-24T10:50:19Z
2019-07-24T08:53:04Z,42.805,6.029,13.2957,4.59953,2469.867,2019-7-24T10:53:23Z
2019-07-24T08:56:07Z,42.805,6.029,13.2953,4.59953,2469.853,2019-7-24T10:56:26Z
2019-07-24T08:59:10Z,42.805,6.029,13.2953,4.59952,2469.83,2019-7-24T10:59:29Z
2019-07-24T09:02:13Z,42.805,6.029,13.2952,4.59953,2469.876,2019-7-24T11:02:32Z
2019-07-24T09:05:16Z,42.805,6.029,13.2948,4.59954,2469.89,2019-7-24T11:05:35Z
2019-07-24T09:08:20Z,42.805,6.029,13.2952,4.59952,2469.853,2019-7-24T11:08:39Z
2019-07-24T09:11:23Z,42.805,6.029,13.2953,4.59953,2469.867,2019-7-24T11:11:42Z
2019-07-24T09:14:26Z,42.805,6.029,13.2956,4.59952,2469.867,2019-7-24T11:14:45Z
2019-07-24T09:17:29Z,42.805,6.029,13.2953,4.59951,2469.89,2019-7-24T11:17:48Z
2019-07-24T09:20:32Z,42.805,6.029,13.2958,4.59951,2469.876,2019-7-24T11:20:51Z
2019-07-24T09:23:36Z,42.805,6.029,13.2957,4.59954,2469.839,2019-7-24T11:23:55Z
2019-07-24T09:26:39Z,42.805,6.029,13.2957,4.59952,2469.876,2019-7-24T11:26:58Z
2019-07-24T09:29:42Z,42.805,6.029,13.2957,4.59952,2469.853,2019-7-24T11:30:01Z
2019-07-24T09:32:45Z,42.805,6.029,13.2951,4.59954,2469.876,2019-7-24T11:33:04Z
2019-07-24T09:35:48Z,42.805,6.029,13.2956,4.59953,2469.89,2019-7-24T11:36:07Z
2019-07-24T09:38:51Z,42.805,6.029,13.2952,4.59954,2469.914,2019-7-24T11:39:10Z
2019-07-24T09:41:55Z,42.805,6.029,13.2956,4.59956,2469.876,2019-7-24T11:42:14Z
2019-07-24T09:44:58Z,42.805,6.029,13.2954,4.59953,2469.876,2019-7-24T11:45:17Z
2019-07-24T09:48:01Z,42.805,6.029,13.2953,4.59952,2469.937,2019-7-24T11:48:20Z
2019-07-24T09:51:04Z,42.805,6.029,13.2954,4.59952,2469.914,2019-7-24T11:51:23Z
2019-07-24T09:54:07Z,42.805,6.029,13.2954,4.59954,2469.9,2019-7-24T11:54:27Z
2019-07-24T09:57:11Z,42.805,6.029,13.2957,4.59951,2469.9,2019-7-24T11:57:30Z
2019-07-24T10:00:14Z,42.805,6.029,13.2955,4.59954,2469.89,2019-7-24T12:00:33Z
2019-07-24T10:03:17Z,42.805,6.029,13.2955,4.59955,2469.9,2019-7-24T12:03:36Z
2019-07-24T10:06:20Z,42.805,6.029,13.2955,4.59953,2469.914,2019-7-24T12:06:39Z
2019-07-24T10:09:23Z,42.805,6.029,13.2952,4.59954,2469.89,2019-7-24T12:09:42Z
2019-07-24T10:12:27Z,42.805,6.029,13.2954,4.59952,2469.9,2019-7-24T12:12:46Z
2019-07-24T10:15:30Z,42.805,6.029,13.2953,4.59952,2469.9,2019-7-24T12:15:49Z
2019-07-24T10:18:33Z,42.805,6.029,13.2952,4.59953,2469.853,2019-7-24T12:18:52Z
2019-07-24T10:21:36Z,42.805,6.029,13.2951,4.59952,2469.923,2019-7-24T12:21:55Z
2019-07-24T10:24:39Z,42.805,6.029,13.2960,4.59954,2469.867,2019-7-24T12:24:58Z
2019-07-24T10:27:43Z,42.805,6.029,13.2953,4.59954,2469.914,2019-7-24T12:28:02Z
2019-07-24T10:30:46Z,42.805,6.029,13.2957,4.59955,2469.89,2019-7-24T12:31:05Z
2019-07-24T10:33:49Z,42.805,6.029,13.2953,4.59953,2469.9,2019-7-24T12:34:08Z
2019-07-24T10:36:52Z,42.805,6.029,13.2952,4.59955,2469.9,2019-7-24T12:37:11Z
2019-07-24T10:39:55Z,42.805,6.029,13.2954,4.59954,2469.914,2019-7-24T12:40:14Z
2019-07-24T10:42:59Z,42.805,6.029,13.2953,4.59953,2469.923,2019-7-24T12:43:18Z
2019-07-24T10:46:02Z,42.805,6.029,13.2954,4.59954,2469.9,2019-7-24T12:46:21Z
2019-07-24T10:49:05Z,42.805,6.029,13.2957,4.59954,2469.914,2019-7-24T12:49:24Z
2019-07-24T10:52:08Z,42.805,6.029,13.2953,4.59952,2469.914,2019-7-24T12:52:27Z
2019-07-24T10:55:11Z,42.805,6.029,13.2953,4.59953,2469.9,2019-7-24T12:55:30Z
2019-07-24T10:58:15Z,42.805,6.029,13.2955,4.59952,2469.937,2019-7-24T12:58:34Z
2019-07-24T11:01:18Z,42.805,6.029,13.2952,4.59953,2469.89,2019-7-24T13:01:37Z
2019-07-24T11:04:21Z,42.805,6.029,13.2958,4.59953,2469.937,2019-7-24T13:04:40Z
2019-07-24T11:07:24Z,42.805,6.029,13.2954,4.59953,2469.914,2019-7-24T13:07:43Z
2019-07-24T11:10:27Z,42.805,6.029,13.2957,4.59951,2469.9,2019-7-24T13:10:46Z
2019-07-24T11:13:31Z,42.805,6.029,13.2952,4.59951,2469.923,2019-7-24T13:13:50Z
2019-07-24T11:16:34Z,42.805,6.029,13.2952,4.59953,2469.9,2019-7-24T13:16:53Z
2019-07-24T11:19:37Z,42.805,6.029,13.2953,4.59952,2469.876,2019-7-24T13:19:56Z
2019-07-24T11:22:40Z,42.805,6.029,13.2954,4.59952,2469.914,2019-7-24T13:22:59Z
2019-07-24T11:25:43Z,42.805,6.029,13.2953,4.59954,2469.9,2019-7-24T13:26:02Z
2019-07-24T11:28:47Z,42.805,6.029,13.2951,4.59953,2469.9,2019-7-24T13:29:06Z
2019-07-24T11:31:50Z,42.805,6.029,13.2957,4.59952,2469.914,2019-7-24T13:32:09Z
2019-07-24T11:34:53Z,42.805,6.029,13.2955,4.59953,2469.914,2019-7-24T13:35:12Z
2019-07-24T11:37:56Z,42.805,6.029,13.2958,4.59954,2469.9,2019-7-24T13:38:15Z
2019-07-24T11:40:59Z,42.805,6.029,13.2953,4.59952,2469.9,2019-7-24T13:41:18Z
2019-07-24T11:44:02Z,42.805,6.029,13.2953,4.59953,2469.914,2019-7-24T13:44:21Z
2019-07-24T11:47:06Z,42.805,6.029,13.2948,4.59954,2469.9,2019-7-24T13:47:25Z
2019-07-24T11:50:09Z,42.805,6.029,13.2955,4.59954,2469.914,2019-7-24T13:50:28Z
2019-07-24T11:53:12Z,42.805,6.029,13.2957,4.59954,2469.923,2019-7-24T13:53:31Z
2019-07-24T11:56:15Z,42.805,6.029,13.2953,4.59953,2469.876,2019-7-24T13:56:34Z
2019-07-24T11:59:18Z,42.805,6.029,13.2954,4.59954,2469.9,2019-7-24T13:59:38Z
2019-07-24T12:02:22Z,42.805,6.029,13.2952,4.59953,2469.937,2019-7-24T14:02:41Z
2019-07-24T12:05:25Z,42.805,6.029,13.2954,4.59952,2469.914,2019-7-24T14:05:44Z
2019-07-24T12:08:28Z,42.805,6.029,13.2954,4.59953,2469.9,2019-7-24T14:08:47Z
2019-07-24T12:11:31Z,42.805,6.029,13.2953,4.59954,2469.937,2019-7-24T14:11:50Z
2019-07-24T12:14:34Z,42.805,6.029,13.2953,4.59953,2469.914,2019-7-24T14:14:53Z
2019-07-24T12:17:38Z,42.805,6.029,13.2954,4.59951,2469.9,2019-7-24T14:17:57Z
2019-07-24T12:20:41Z,42.805,6.029,13.2957,4.59954,2469.89,2019-7-24T14:21:00Z
2019-07-24T12:23:44Z,42.805,6.029,13.2954,4.59952,2469.876,2019-7-24T14:24:03Z
2019-07-24T12:26:47Z,42.805,6.029,13.2954,4.59952,2469.9,2019-7-24T14:27:06Z
2019-07-24T12:29:50Z,42.805,6.029,13.2952,4.59951,2469.89,2019-7-24T14:30:09Z
2019-07-24T12:32:53Z,42.805,6.029,13.2957,4.59954,2469.876,2019-7-24T14:33:12Z
2019-07-24T12:35:57Z,42.805,6.029,13.2952,4.59951,2469.9,2019-7-24T14:36:16Z
2019-07-24T12:39:00Z,42.805,6.029,13.2953,4.59951,2469.9,2019-7-24T14:39:19Z
2019-07-24T12:42:03Z,42.805,6.029,13.2951,4.59953,2469.9,2019-7-24T14:42:22Z
2019-07-24T12:45:06Z,42.805,6.029,13.2953,4.59953,2469.876,2019-7-24T14:45:25Z
2019-07-24T12:48:10Z,42.805,6.029,13.2955,4.59952,2469.9,2019-7-24T14:48:29Z
2019-07-24T12:51:13Z,42.805,6.029,13.2951,4.59954,2469.876,2019-7-24T14:51:32Z
2019-07-24T12:54:16Z,42.805,6.029,13.2958,4.59954,2469.9,2019-7-24T14:54:35Z
2019-07-24T12:57:19Z,42.805,6.029,13.2952,4.59953,2469.9,2019-7-24T14:57:38Z
2019-07-24T13:00:23Z,42.805,6.029,13.2956,4.59954,2469.876,2019-7-24T15:00:42Z
2019-07-24T13:03:26Z,42.805,6.029,13.2954,4.59954,2469.853,2019-7-24T15:03:45Z
2019-07-24T13:06:29Z,42.805,6.029,13.2956,4.59953,2469.9,2019-7-24T15:06:48Z
2019-07-24T13:09:32Z,42.805,6.029,13.2952,4.59953,2469.9,2019-7-24T15:09:51Z
2019-07-24T13:12:35Z,42.805,6.029,13.2955,4.59953,2469.923,2019-7-24T15:12:54Z
2019-07-24T13:15:39Z,42.805,6.029,13.2952,4.59952,2469.876,2019-7-24T15:15:58Z
2019-07-24T13:18:42Z,42.805,6.029,13.2954,4.59954,2469.876,2019-7-24T15:19:01Z
2019-07-24T13:21:45Z,42.805,6.029,13.2954,4.59954,2469.9,2019-7-24T15:22:04Z
2019-07-24T13:24:48Z,42.805,6.029,13.2954,4.59952,2469.853,2019-7-24T15:25:07Z
2019-07-24T13:27:51Z,42.805,6.029,13.2955,4.59952,2469.914,2019-7-24T15:28:10Z
2019-07-24T13:30:55Z,42.805,6.029,13.2953,4.59953,2469.914,2019-7-24T15:31:14Z
2019-07-24T13:33:58Z,42.805,6.029,13.2953,4.59951,2469.876,2019-7-24T15:34:17Z
2019-07-24T13:37:01Z,42.805,6.029,13.2953,4.59954,2469.9,2019-7-24T15:37:20Z
2019-07-24T13:40:04Z,42.805,6.029,13.2953,4.59954,2469.853,2019-7-24T15:40:23Z
2019-07-24T13:43:07Z,42.805,6.029,13.2952,4.59955,2469.83,2019-7-24T15:43:26Z
2019-07-24T13:46:10Z,42.805,6.029,13.2955,4.59954,2469.853,2019-7-24T15:46:29Z
2019-07-24T13:49:14Z,42.805,6.029,13.2951,4.59953,2469.876,2019-7-24T15:49:33Z
2019-07-24T13:52:17Z,42.805,6.029,13.2956,4.59953,2469.863,2019-7-24T15:52:36Z
2019-07-24T13:55:20Z,42.805,6.029,13.2957,4.59953,2469.867,2019-7-24T15:55:39Z
2019-07-24T13:58:23Z,42.805,6.029,13.2955,4.59953,2469.876,2019-7-24T15:58:42Z
2019-07-24T14:01:26Z,42.805,6.029,13.2953,4.59953,2469.9,2019-7-24T16:01:45Z
2019-07-24T14:04:30Z,42.805,6.029,13.2957,4.59953,2469.853,2019-7-24T16:04:49Z
2019-07-24T14:07:33Z,42.805,6.029,13.2953,4.59953,2469.853,2019-7-24T16:07:52Z
2019-07-24T14:10:36Z,42.805,6.029,13.2955,4.59952,2469.876,2019-7-24T16:10:55Z
2019-07-24T14:13:39Z,42.805,6.029,13.2955,4.59954,2469.89,2019-7-24T16:13:58Z
2019-07-24T14:16:42Z,42.805,6.029,13.2954,4.59952,2469.876,2019-7-24T16:17:01Z
2019-07-24T14:19:45Z,42.805,6.029,13.2953,4.59953,2469.89,2019-7-24T16:20:05Z
2019-07-24T14:22:49Z,42.805,6.029,13.2951,4.59952,2469.876,2019-7-24T16:23:08Z
2019-07-24T14:25:52Z,42.805,6.029,13.2955,4.59952,2469.876,2019-7-24T16:26:11Z
2019-07-24T14:28:55Z,42.805,6.029,13.2952,4.59953,2469.89,2019-7-24T16:29:14Z
2019-07-24T14:31:58Z,42.805,6.029,13.2955,4.59954,2469.876,2019-7-24T16:32:17Z
2019-07-24T14:35:01Z,42.805,6.029,13.2956,4.59953,2469.914,2019-7-24T16:35:20Z
2019-07-24T14:38:05Z,42.805,6.029,13.2953,4.59953,2469.853,2019-7-24T16:38:24Z
2019-07-24T14:41:08Z,42.805,6.029,13.2957,4.59953,2469.9,2019-7-24T16:41:27Z
2019-07-24T14:44:11Z,42.805,6.029,13.2951,4.59953,2469.867,2019-7-24T16:44:30Z
2019-07-24T14:47:14Z,42.805,6.029,13.2953,4.59953,2469.876,2019-7-24T16:47:33Z
2019-07-24T14:50:17Z,42.805,6.029,13.2957,4.59952,2469.853,2019-7-24T16:50:36Z
2019-07-24T14:53:21Z,42.805,6.029,13.2952,4.59953,2469.853,2019-7-24T16:53:40Z
2019-07-24T14:56:24Z,42.805,6.029,13.2949,4.59951,2469.867,2019-7-24T16:56:43Z
2019-07-24T14:59:27Z,42.805,6.029,13.2957,4.59954,2469.853,2019-7-24T16:59:46Z
2019-07-24T15:02:30Z,42.805,6.029,13.2958,4.59952,2469.89,2019-7-24T17:02:49Z
2019-07-24T15:05:34Z,42.805,6.029,13.2956,4.59952,2469.853,2019-7-24T17:05:53Z
2019-07-24T15:08:37Z,42.805,6.029,13.2954,4.59952,2469.89,2019-7-24T17:08:56Z
2019-07-24T15:11:40Z,42.805,6.029,13.2955,4.59954,2469.89,2019-7-24T17:11:59Z
2019-07-24T15:14:43Z,42.805,6.029,13.2956,4.59953,2469.853,2019-7-24T17:15:02Z